Flag for Germany Weather past 2 weeks in Beckum, North Rhine-Westphalia, Germany

Now
52 °F

Passing clouds.


Feels Like: 49 °F
Forecast: 48 / 56 °F
Wind: 7 mph from West

Location: Paderborn / Lippstadt

Current Time: Sep 5, 2015 at 5:43:00 AM

Latest Report: Sep 5, 2015 at 4:50 AM


Visibility: N/A

Pressure: 29.89 "Hg

Humidity: 94%

Dew point: 50 °F

Location of BeckumLocation

Historic Weather in Beckum — Graph

°F

Beckum temperature yesterday

Maximum temperature yesterday: 61 °F (at 11:20 AM)
Minimum temperature yesterday: 46 °F (at 12:20 AM)
Average temperature yesterday: 54 °F

Past Weeks' High & Low Weather Summary

 TemperatureHumidityPressure
High90 °F (Aug 30, 4:20 PM)100% (Aug 27, 7:50 PM)30.27 "Hg (Aug 27, 7:50 PM)
Low46 °F (Sep 2, 6:20 AM)27% (Aug 31, 2:50 PM)29.59 "Hg (Aug 24, 4:20 PM)
Average63 °F70%29.96 "Hg
* Reported Aug 21 4:20 AM — Sep 5 4:20 AM, Beckum, Weather by CustomWeather, © 2015

Note: Actual official high and low records may vary slightly from our data, if they occured in-between our weather recording intervals... More about our weather records

Advertising

Beckum weather history for previous 24 hours

 ConditionsComfort  
Time TempWeatherWind HumidityBarometerVisibility
4:20 AM
Sat, Sep 5
52 °FLight rain. Passing clouds.7 mph94%29.89 "HgN/A
3:50 AM50 °FLight rain. Passing clouds.10 mph100%29.89 "HgN/A
3:20 AM52 °FPassing clouds.14 mph100%29.89 "HgN/A
2:50 AM52 °FPassing clouds.14 mph100%29.89 "HgN/A
2:20 AM52 °FPassing clouds.14 mph100%29.89 "HgN/A
1:50 AM52 °FPassing clouds.16 mph100%29.89 "HgN/A
1:20 AM52 °FLight rain. Passing clouds.16 mph100%29.89 "HgN/A
12:50 AM50 °FLight rain. Passing clouds.17 mph100%29.89 "HgN/A
12:20 AM50 °FRain. Partly cloudy.17 mph100%29.89 "Hg2 mi
11:50 PM
Fri, Sep 4
54 °FPassing clouds.16 mph94%29.89 "HgN/A
11:20 PM52 °FPassing clouds.17 mph100%29.89 "HgN/A
10:50 PM54 °FLight rain. Passing clouds.17 mph100%29.89 "HgN/A
10:20 PM54 °FPassing clouds.17 mph100%29.89 "HgN/A
9:50 PM54 °FClear.13 mph94%29.92 "Hg10 mi
9:20 PM52 °FClear.13 mph94%29.92 "Hg10 mi
8:50 PM52 °FScattered clouds.15 mph94%29.92 "HgN/A
8:20 PM54 °FSunny.15 mph88%29.92 "Hg10 mi
7:50 PM52 °FScattered clouds.10 mph100%29.92 "HgN/A
7:20 PM57 °FBroken clouds.15 mph67%29.92 "HgN/A
6:50 PM57 °FBroken clouds.13 mph77%29.92 "HgN/A
6:20 PM57 °FBroken clouds.14 mph82%29.92 "HgN/A
5:50 PM59 °FBroken clouds.13 mph63%29.92 "HgN/A
5:20 PM59 °FBroken clouds.15 mph68%29.92 "HgN/A
4:50 PM57 °FBroken clouds.14 mph72%29.92 "HgN/A
4:20 PM59 °FScattered clouds.18 mph68%29.92 "HgN/A
3:50 PM59 °FScattered clouds.15 mph63%29.95 "HgN/A
3:20 PM57 °FScattered clouds.13 mph67%29.95 "HgN/A
2:50 PM59 °FScattered clouds.16 mph63%29.95 "HgN/A
2:20 PM59 °FScattered clouds.17 mph59%29.95 "HgN/A
1:50 PM59 °FScattered clouds.15 mph59%29.95 "HgN/A
1:20 PM59 °FPassing clouds.13 mph59%29.95 "HgN/A
12:50 PM57 °FPassing clouds.12 mph63%29.95 "HgN/A
12:20 PM59 °FPassing clouds.14 mph55%29.95 "HgN/A
11:50 AM59 °FPassing clouds.15 mph55%29.95 "HgN/A
11:20 AM61 °FPassing clouds.17 mph52%29.95 "HgN/A
10:50 AM59 °FSunny.14 mph51%29.95 "Hg10 mi
10:20 AM55 °FPassing clouds.14 mph55%29.95 "HgN/A
9:50 AM55 °FPassing clouds.17 mph55%29.95 "HgN/A
9:20 AM54 °FSunny.16 mph63%29.95 "Hg10 mi
8:50 AM54 °FSunny.14 mph63%29.95 "Hg10 mi
8:20 AM54 °FSunny.10 mph67%29.95 "Hg10 mi
7:50 AM52 °FSunny.9 mph82%29.95 "Hg10 mi
7:20 AM50 °FPassing clouds.9 mph100%29.95 "HgN/A
6:50 AM50 °FPassing clouds.9 mph94%29.95 "HgN/A
6:20 AM48 °FClear.8 mph100%29.95 "Hg10 mi
5:50 AM48 °FClear.7 mph100%29.95 "Hg10 mi
5:20 AM50 °FClear.8 mph94%29.95 "Hg10 mi
Weather by CustomWeather, © 2015

See weather overviewHow to use our weather pages